STARLINK-35761

Last updated on Fri Dec 19 2025 00:02:08 GMT+0000 (Coordinated Universal Time)

1 66961U 25288C 25352.58336806 -.01235438 00000+0 -54653-2 0 9991 2 66961 43.0008 131.4156 0001484 273.8837 293.6171 15.85987989 2775
UTC large
Height (km)
Speed (km/s)
/
Latitude / Longitude
Inclination (degrees)
Orbital Period (minutes)
Azimuth
Elevation
Range (km)
Doppler Factor

Next 0 passes for location: London (51.5072 / 0.1276)

Sorry there are no passes over London.